SCP
1 2 3 4 3 3 3 3 3 3 2 2 2 1 1 1 1 1 1 0 0 0 0 0 0 0 1 1 1 0 0 1 1 1 1 1 1 0 0 0 1 1 1
1 2 3 3 3 2 2 3 3 2 2 2 1 1 1 1 1 1 1 0 0 0 0 0 0 0 0 1 1 1 0 1 1 1 1 1 1 1 1 1 1 1 1
1 2 3 3 2 1 2 2 2 2 2 2 1 1 1 1 1 1 1 1 0 0 0 0 0 0 0 0 1 1 1 1 1 1 1 1 1 1 1 1 1 1 1
1 1 2 3 2 1 1 1 2 2 2 2 1 1 1 1 1 1 1 1 1 0 0 0 0 0 0 0 1 1 1 1 1 1 1 0 1 1 1 1 1 1 1
1 1 2 3 2 2 2 2 2 2 2 1 1 1 1 1 1 1 1 1 1 0 0 0 0 0 0 0 1 1 1 1 1 1 1 0 1 1 1 1 1 1 1
1 1 1 2 3 3 3 2 2 2 2 1 1 1 1 1 1 1 1 1 1 0 0 1 1 0 0 0 1 1 1 1 1 1 1 1 1 1 1 1 1 1 1
1 1 1 2 2 3 3 2 2 2 2 1 1 1 1 1 1 1 1 1 1 1 1 1 1 1 1 0 1 1 1 1 1 1 1 1 1 1 1 1 1 1 1
1 1 1 1 1 2 2 2 2 2 2 2 2 1 1 1 1 1 1 1 1 1 1 1 1 1 1 1 1 1 1 1 1 1 1 1 1 2 2 2 1 1 1
1 0 0 0 1 1 1 1 2 2 2 2 2 2 1 1 1 1 1 1 1 1 1 1 1 1 1 1 1 1 1 1 1 1 1 1 2 2 2 2 1 1 1
1 0 0 0 0 0 0 1 1 2 2 2 2 1 1 1 1 1 1 1 1 1 1 1 1 1 1 1 1 1 1 1 1 1 1 2 2 2 2 1 1 1 1
1 1 0 0 0 0 0 1 1 1 1 1 1 1 1 1 1 1 1 1 1 1 1 1 1 1 2 2 1 1 1 1 1 1 1 2 2 1 1 1 1 1 1
1 1 1 0 0 0 0 0 1 1 1 1 1 1 1 1 1 1 1 1 1 1 1 1 1 2 2 2 1 1 1 1 1 1 1 1 1 1 1 1 2 2 2
1 1 1 1 1 0 0 1 1 1 0 0 0 1 1 1 1 1 1 1 1 1 1 1 1 1 1 1 1 1 2 2 2 1 1 1 1 1 1 1 2 2 2
1 1 1 1 1 1 1 1 1 1 0 0 0 1 1 1 1 1 1 1 1 2 2 2 2 1 1 1 1 1 1 1 1 1 1 1 1 1 1 1 1 2 2
1 1 1 1 1 1 1 1 1 1 0 0 0 1 1 1 1 1 1 1 2 2 2 2 2 2 1 1 1 1 1 1 1 1 1 1 1 1 1 1 1 1 2
1 1 1 1 1 1 1 1 1 1 1 0 0 0 0 1 1 1 1 1 2 2 2 2 2 2 2 1 1 1 1 1 1 0 0 1 1 1 1 1 1 1 2
2 2 1 1 1 1 1 1 1 1 1 0 0 0 0 1 1 1 1 1 1 2 2 2 2 2 2 2 1 1 2 1 1 1 1 1 1 1 1 1 1 1 2
2 1 1 1 1 1 1 1 1 1 1 0 0 1 1 1 1 1 1 1 1 1 2 2 2 2 2 2 2 2 2 2 1 1 1 1 1 1 1 1 1 1 2
1 1 1 1 1 1 1 1 1 1 1 1 1 1 1 1 1 1 1 1 1 1 1 1 1 2 2 2 2 2 2 2 1 1 1 1 1 1 1 2 2 2 2
1 1 1 1 1 1 1 1 1 1 1 1 1 1 1 1 1 1 1 1 1 1 1 1 1 1 2 2 2 2 2 1 1 1 1 1 1 1 1 2 2 2 2
1 2 2 2 2 1 1 1 1 1 1 1 1 1 1 1 1 1 1 1 1 1 1 1 1 1 1 2 2 1 1 1 1 1 1 1 2 2 2 2 2 2 2
2 2 3 2 2 1 1 1 1 1 1 1 1 1 1 1 1 1 1 2 1 1 1 1 2 1 1 2 2 2 1 1 1 1 1 2 2 2 2 2 2 3 3
2 2 2 2 2 1 1 1 1 1 1 1 1 2 2 2 2 2 2 2 1 1 1 2 2 2 2 2 2 2 2 2 2 2 1 2 2 2 1 1 2 2 3
2 2 2 2 2 2 2 2 2 2 2 2 2 2 2 2 2 2 2 1 1 1 2 2 2 2 2 3 3 3 3 3 3 2 2 1 1 1 1 1 1 2 2
2 2 2 2 2 2 2 2 2 2 2 2 2 2 2 2 2 2 2 2 2 2 2 2 3 3 3 3 3 3 3 3 3 3 2 1 1 1 1 2 2 2 2
2 2 2 2 2 2 2 3 3 2 2 2 2 2 2 2 2 2 2 2 2 2 2 3 3 3 3 3 3 3 3 3 3 3 2 1 1 1 2 2 2 2 2
Wind_Speed
4 7 9 7 8 9 10 10 10 9 9 9 10 10 10 10 10 9 9 8 8 8 8 8 8 8 8 8 8 8 8 8 8 7 7 7 7 7 7 6 6 6 8
6 8 9 6 7 9 10 10 10 9 9 9 10 10 9 9 9 8 9 8 7 7 8 8 8 8 8 8 8 7 8 8 8 8 8 8 8 7 6 5 2 4 7
7 8 9 7 8 10 10 9 9 9 9 9 9 9 9 8 8 8 8 8 7 7 7 7 7 8 8 7 7 6 7 7 7 8 8 7 8 8 7 5 4 5 5
7 8 8 9 10 11 10 9 9 9 9 9 9 9 9 8 8 8 8 8 7 7 6 6 6 6 7 6 6 6 6 7 7 9 8 5 6 9 8 6 6 6 5
7 8 11 9 9 9 9 8 8 8 8 9 9 8 8 8 7 7 7 7 7 7 6 5 5 5 6 6 6 6 6 6 7 9 5 4 4 9 8 7 6 6 6
8 8 11 9 9 8 9 8 8 7 8 8 8 8 7 7 6 6 6 6 5 6 6 5 5 5 5 5 5 6 6 7 9 6 5 5 4 8 7 7 6 6 6
8 8 11 9 9 8 8 8 7 7 7 7 7 7 6 6 5 5 5 5 5 4 4 4 4 4 4 5 5 6 7 8 8 4 4 4 4 7 7 7 6 6 6
8 8 10 10 8 8 7 7 7 7 7 7 6 6 5 5 4 4 4 4 4 3 4 4 4 4 4 4 4 5 6 9 7 5 5 4 6 7 7 7 7 6 6
7 7 7 9 10 9 7 7 7 6 6 6 6 5 4 4 4 4 3 3 3 2 2 3 3 4 4 4 5 5 6 8 7 4 4 3 7 7 7 7 7 7 7
7 6 6 6 6 7 8 8 6 6 5 5 5 4 4 5 5 5 5 3 2 2 2 2 3 3 4 5 5 6 6 8 8 5 3 3 8 7 8 7 7 7 7
6 6 5 6 6 5 5 7 7 8 6 6 6 5 5 3 4 5 3 3 2 2 3 3 3 4 4 6 6 7 7 5 4 3 2 5 6 7 8 8 8 7 8
6 6 5 5 5 4 3 5 3 4 5 3 2 3 3 2 1 1 5 4 3 3 4 4 5 7 7 4 6 8 4 4 3 3 2 6 6 7 8 8 8 8 9
6 5 6 5 3 3 3 3 2 2 3 3 3 2 1 1 2 2 2 4 4 4 3 4 5 3 3 2 2 3 3 2 2 1 3 6 6 6 7 7 7 7 8
6 6 5 5 4 3 2 3 3 3 2 2 3 2 1 1 1 0 1 1 1 1 1 2 1 1 2 2 3 3 3 3 2 1 2 6 6 6 7 7 7 8 8
6 6 6 5 4 4 3 2 2 2 2 2 2 2 2 1 1 0 1 1 2 1 1 2 1 1 2 2 3 3 3 3 2 2 2 6 6 7 7 8 8 8 9
6 6 6 5 5 4 3 3 2 2 2 1 1 1 1 1 1 1 1 1 1 1 1 1 2 2 2 2 2 2 2 2 2 2 2 4 7 7 7 8 9 9 9
6 6 6 6 6 5 4 3 2 2 2 2 2 2 2 2 1 1 1 1 0 1 1 2 2 2 2 2 2 2 2 2 2 2 2 2 3 7 8 8 8 8 8
6 6 6 5 6 5 4 2 2 1 1 1 1 2 2 1 1 2 1 0 0 1 1 1 2 2 2 2 2 2 2 1 2 2 2 2 2 2 6 8 8 7 8
6 6 6 5 5 5 4 3 2 1 1 1 1 1 1 2 2 2 1 1 1 1 1 2 0 2 2 2 2 2 2 2 2 2 2 2 1 1 1 5 8 7 7
6 6 6 6 5 5 4 3 2 2 2 2 1 1 1 2 2 2 1 1 2 1 1 1 1 2 2 2 3 2 2 1 2 1 2 2 1 2 1 2 3 5 6
6 6 6 6 6 4 3 3 3 2 2 2 2 1 2 2 1 2 2 1 1 1 1 2 2 2 2 2 3 3 3 3 2 2 2 2 2 1 1 2 2 2 3
7 7 7 7 6 6 4 3 2 2 2 2 1 1 2 2 2 2 2 2 1 1 1 2 2 3 2 2 3 3 3 3 2 2 2 2 1 1 2 3 2 2 2
8 8 7 7 7 6 5 4 3 2 2 2 2 1 2 2 2 1 1 2 1 2 1 2 2 3 3 2 2 3 3 2 1 2 2 2 2 2 2 2 3 3 3
8 8 7 7 7 6 6 5 5 3 2 2 2 1 2 2 2 2 2 2 2 2 1 3 1 2 3 3 1 2 3 3 4 2 2 2 3 3 3 3 3 3 3
8 7 7 6 6 5 5 5 4 3 2 2 1 1 2 2 2 2 2 2 2 2 2 2 2 3 3 3 3 2 2 3 5 4 4 3 3 3 3 3 3 3 3
7 7 7 7 6 6 6 5 4 3 3 2 2 1 2 2 2 2 2 2 3 2 2 3 3 3 3 3 3 3 3 3 3 4 4 4 4 3 2 3 3 3 4
Wind_Direction
115 116 127 140 140 139 133 131 130 130 131 131 133 135 138 141 144 148 147 146 146 148 146 143 141 143 142 140 140 140 140 141 144 147 147 145 143 145 146 155 175 161 130
115 116 127 135 142 142 134 133 131 131 128 130 133 135 140 143 143 144 146 145 147 152 152 151 148 148 146 146 148 150 152 152 154 158 160 163 160 157 158 165 201 106 134
115 119 129 120 126 136 133 131 132 133 132 131 132 136 139 142 141 142 143 145 146 148 151 154 155 153 153 153 152 159 163 163 168 177 188 185 157 159 162 162 153 142 148
118 120 113 113 120 128 131 131 130 131 131 130 131 135 139 139 137 140 144 147 147 148 153 158 162 157 155 158 162 165 171 178 184 199 203 179 161 151 165 170 168 163 165
116 116 110 118 122 127 128 127 127 129 129 130 131 132 136 138 139 144 146 146 149 152 157 161 161 162 166 171 175 176 183 192 201 219 201 188 168 148 167 176 174 176 181
122 121 115 125 124 125 126 127 131 135 133 130 129 129 132 135 139 146 145 146 150 158 164 167 167 167 176 183 183 186 195 207 220 217 203 199 175 153 174 186 187 187 188
124 120 120 126 126 127 128 131 133 133 131 127 126 128 129 131 134 139 142 147 155 161 164 167 171 182 185 187 189 195 203 220 239 227 217 204 169 156 179 193 193 190 191
124 122 121 131 131 132 131 130 128 127 129 128 128 130 128 124 128 132 138 147 156 164 173 181 187 192 187 192 198 205 211 236 229 221 220 205 151 165 186 193 195 195 198
123 127 132 139 145 149 141 134 130 130 131 133 134 139 140 141 142 137 149 157 160 173 177 187 196 204 205 208 212 216 221 240 254 231 226 200 150 181 197 200 201 203 207
127 134 136 132 138 152 148 143 139 136 133 139 146 150 165 177 172 168 179 156 166 186 199 189 193 207 213 220 221 223 229 240 240 234 229 149 156 190 205 208 206 207 207
133 135 141 138 146 151 141 139 154 152 153 167 164 165 195 194 173 176 128 138 183 198 197 194 203 211 220 214 215 224 232 239 239 247 230 124 163 193 207 212 208 205 208
146 147 144 142 149 148 144 141 157 156 150 169 147 173 184 170 194 196 139 175 196 203 204 202 210 216 229 216 197 211 230 231 242 226 147 140 182 203 211 213 213 211 209
151 151 148 143 149 154 147 143 140 149 153 165 160 183 184 208 184 192 179 178 195 207 216 194 218 229 233 243 250 228 243 256 249 236 141 155 189 206 212 213 215 215 212
156 156 151 148 151 157 150 144 160 161 164 166 155 208 188 200 238 161 244 269 233 217 238 253 238 244 261 258 252 249 239 241 253 252 149 166 195 207 214 217 217 216 214
163 162 155 157 154 159 154 183 161 165 168 160 171 182 227 215 226 219 258 274 275 267 230 255 264 245 260 255 258 252 247 245 251 247 178 168 196 211 218 220 218 219 217
172 167 163 169 161 170 175 181 180 179 171 189 184 172 226 244 241 241 228 247 263 269 287 272 246 247 256 266 259 245 254 254 242 252 251 179 189 207 216 220 219 221 221
177 169 172 175 172 181 189 197 188 187 172 182 174 174 219 232 210 243 239 231 279 289 256 248 253 245 243 242 246 242 236 240 253 247 249 252 205 194 204 213 218 221 222
180 174 181 184 175 180 181 199 204 201 180 193 180 171 190 240 235 254 255 262 273 250 247 237 245 250 251 258 255 255 253 210 232 233 232 229 260 249 192 197 213 220 223
179 177 179 183 180 179 175 180 197 190 211 228 210 204 186 217 223 247 269 330 265 261 273 269 241 273 255 256 251 241 254 228 234 240 249 248 237 263 267 172 193 210 218
174 175 173 177 178 177 175 178 190 193 203 210 211 205 236 229 220 253 230 233 271 277 279 301 293 270 270 265 269 275 266 254 247 246 246 233 216 227 248 253 204 194 200
177 178 176 179 173 179 184 197 191 197 208 203 211 199 221 240 216 234 263 201 256 257 278 277 274 257 259 266 261 251 223 217 237 221 238 250 223 215 231 250 256 269 195
182 181 179 182 178 188 188 196 197 214 218 200 229 192 234 233 233 211 234 248 236 243 241 266 272 283 282 269 279 282 260 209 212 216 226 227 237 231 232 231 229 237 260
184 186 185 183 181 191 188 185 183 192 214 195 201 199 219 220 216 248 239 261 257 252 239 252 259 264 277 271 279 285 289 298 295 212 225 235 240 244 244 247 233 225 234
183 182 185 182 182 182 186 193 197 202 207 208 216 180 189 203 220 219 234 248 257 265 260 258 267 273 270 273 255 261 288 312 291 273 230 222 232 232 240 253 250 226 225
180 180 178 175 179 184 193 193 201 212 217 209 214 180 219 197 218 234 235 244 243 254 266 283 287 276 270 280 282 266 255 247 257 270 272 272 258 243 234 238 240 240 234
179 178 174 170 176 184 188 190 194 206 220 227 238 228 231 214 214 225 250 250 246 255 249 255 266 257 273 283 283 279 268 269 272 272 274 271 270 264 251 249 245 239 238